伽利略0216星导航星座 (GSAT0216 (GALILEO 20))

导读

GALILEO 20 (2C6)是欧洲空间局(ESA)发射的伽利略定位系统卫星,于2017年12月12日发射入轨。作为欧洲全球卫星导航系统的组成部分,它承担着全球高精度定位、导航与授时服务任务,助力提升伽利略系统的覆盖稳定性与服务精度,为民用、商业等领域提供独立于其他系统的导航支持,推动欧洲卫星导航产业发展与全球空间定位基础设施完善。

基本信息
目录编号:
43056
目录名称:
GALILEO 20 (2C6)
国际标识:
2017-079B
轨道中心:
EARTH
卫星名称:
伽利略0216星
卫星全名:
伽利略0216星导航星座 (GSAT0216 (GALILEO 20))
卫星状态:
在轨 (已飞行3149 天)
发射日期:
2017-12-12 UTC
国别 :
(ESA)
星等 :
--
轨道信息
数据来源 国际轨道数据
星历时间: 2026-07-25T18:25:35+0800
2天前
查看轨道信息
半长轴: 29600.263km
偏心率: 0.0004988
轨道倾角: 55.066°
近地点辐角 279.019°
升交点赤经 220.454°
平近点角 80.976°
近地点: 23207.361km
远地点: 23236.891km
周期: 844.701分钟
每日圈数: 1.704745
详细信息
平衡模式:
三轴稳定
覆盖范围:
全球
运营商:
欧盟空间计划局
运营商所在国:
法国大都会
使用方式:
暂无
卫星简介
伽利略定位系统(Galileo)是一个全球导航卫星系统,于2016年投入使用由欧盟通过ESA创建,由欧盟空间计划局(EUSPA)运营。该系统有两个地面操控站,并且在高纬度地区提供比其他系统更好的定位服务。该卫星仍在工作。
2D轨道图
3D轨道图
轨道高度分析图
轨道倾角分析图
轨道综合分析图
查看轨道综合分析图